Theta_e
318 319 327 331 331 324 325 324 331 330 323 325 335 338 341 342 348 348 347 344 342 340 338 339 340 340 339 341 341 341 342 343 342 338 339 338 335 336 335 333 334 334 333 333
329 331 330 333 332 330 331 326 324 327 326 326 330 335 339 340 348 348 347 344 344 341 339 336 336 338 339 338 338 339 341 342 340 340 339 337 334 335 333 332 332 332 331 330
325 330 328 325 331 332 333 332 331 335 330 335 336 337 337 336 344 342 342 343 339 336 331 328 330 333 335 337 339 340 340 342 339 339 339 335 334 332 331 330 331 330 328 327
325 326 329 322 326 331 337 344 340 336 336 336 335 334 335 334 338 338 339 336 333 328 324 324 325 327 329 331 332 336 338 340 339 339 339 336 333 331 329 328 328 328 327 326
330 327 327 332 336 344 336 337 337 338 338 342 339 336 339 336 334 336 332 328 325 323 321 321 321 324 325 325 326 327 331 335 339 339 337 336 333 330 327 326 325 326 326 327
332 334 335 329 339 344 342 337 336 339 340 344 340 339 338 332 328 327 324 322 319 318 318 319 319 321 322 322 324 324 327 332 336 338 335 334 332 328 325 323 323 323 324 323
333 336 333 333 343 341 336 334 341 342 341 342 340 336 332 327 325 323 321 320 318 317 316 317 319 320 318 318 317 319 323 327 331 332 330 329 327 323 320 320 320 319 319 316
327 332 333 339 341 338 333 342 338 340 336 335 333 331 327 325 323 322 320 319 318 316 315 316 317 318 316 315 315 317 320 321 322 322 322 321 321 316 314 316 316 313 312 309
324 327 333 339 342 339 338 339 338 338 335 333 329 329 327 325 322 320 319 317 316 315 314 315 315 315 314 313 314 315 316 315 316 317 316 314 313 311 311 312 311 310 309 309
332 333 337 338 335 333 336 338 337 334 333 332 330 327 324 322 321 319 318 316 315 315 313 313 314 314 314 314 314 314 313 312 312 313 313 313 312 313 313 312 310 310 309 308
331 332 333 333 332 333 336 334 332 331 331 330 327 325 324 322 320 319 318 316 315 314 313 313 313 313 313 313 313 312 311 311 311 311 311 310 310 310 311 310 311 310 309 309
333 329 330 330 332 333 333 333 330 328 327 325 325 324 322 320 319 318 317 315 314 314 313 312 311 310 309 310 312 311 309 309 309 308 308 308 307 306 307 308 309 309 310 310
329 328 328 329 332 332 332 331 329 326 324 323 322 322 322 319 318 318 316 314 314 314 313 311 309 309 309 310 311 311 310 309 308 306 303 301 300 301 298 300 303 304 304 305
328 328 331 333 331 331 329 328 326 324 323 322 320 320 319 319 319 317 316 316 316 314 312 312 310 310 309 310 310 308 304 300 298 296 296 295 295 295 296 298 299 300 301 302
328 327 325 325 328 328 326 325 324 323 322 320 320 319 318 319 319 318 318 317 316 314 314 312 309 307 307 307 304 300 299 298 298 298 297 296 295 295 296 296 297 299 299 299
326 325 326 326 329 327 326 324 323 322 321 320 319 319 319 319 319 319 319 318 315 314 314 309 305 304 303 301 300 300 301 301 300 300 299 298 297 296 296 297 298 299 299 298
321 323 324 325 325 325 325 324 323 322 321 320 319 320 320 319 319 319 318 317 316 313 309 305 303 302 302 302 302 301 301 302 302 301 301 301 300 298 297 297 298 298 299 298
312 314 316 320 322 324 324 323 322 321 321 321 320 320 319 319 319 319 318 316 312 310 308 308 307 307 308 308 306 305 304 303 302 302 302 302 302 301 300 299 298 298 298 298
317 316 314 318 319 321 323 322 322 323 322 321 320 320 319 319 319 319 317 316 316 316 315 314 313 311 310 309 308 307 307 306 306 306 307 306 303 302 302 302 301 301 300 299
317 318 315 316 319 320 321 323 322 322 321 321 320 320 319 319 319 319 318 317 317 317 314 312 311 311 310 310 309 308 308 308 310 309 308 308 307 307 306 305 304 304 303 301
317 318 315 317 319 322 323 322 322 321 321 321 320 319 319 318 319 318 316 316 316 316 314 313 313 313 313 312 313 313 311 311 310 308 309 309 309 308 307 306 306 306 305 303
317 316 317 320 320 319 322 322 323 321 320 320 319 319 318 316 316 316 316 316 317 318 317 316 316 313 308 309 306 307 307 307 307 308 309 309 309 308 308 307 307 306 305 305
316 315 318 318 317 317 319 320 320 320 319 318 318 317 317 316 316 316 314 315 317 316 316 316 316 313 307 306 307 306 306 305 306 307 309 310 309 308 308 308 308 308 307 306
318 317 315 316 317 316 315 315 316 316 316 317 317 317 317 315 314 315 316 315 315 316 316 309 306 307 306 305 305 305 305 305 305 305 305 305 304 304 304 304 304 304 306 307
317 316 316 317 317 316 315 315 315 315 315 315 315 316 315 315 314 313 315 315 314 309 306 309 312 310 305 305 305 305 304 304 305 305 304 303 303 303 303 303 303 302 302 304
315 315 316 316 316 316 316 315 315 315 314 313 313 314 315 315 314 314 313 312 312 312 310 310 311 310 309 309 309 307 304 303 304 304 303 303 303 303 303 302 302 302 302 302
314 314 315 315 315 315 315 315 315 315 314 313 313 313 313 313 313 313 313 313 313 313 312 312 312 311 310 307 306 307 308 304 303 303 303 303 303 302 302 302 302 302 301 301
Wind_Speed
5 4 4 3 5 6 4 5 5 4 7 7 11 13 7 7 7 10 9 6 6 6 7 10 10 10 7 11 12 16 17 17 16 12 11 9 8 9 10 11 13 13 13 14
3 2 8 5 6 7 5 4 3 3 8 4 4 7 6 8 9 11 11 7 6 7 11 9 9 9 9 8 11 14 18 16 11 13 14 12 11 11 11 12 12 13 14 14
3 3 0 2 6 6 4 4 6 5 6 2 2 6 6 6 9 12 10 9 9 7 9 11 9 9 8 6 6 7 13 13 13 17 17 15 12 13 12 11 9 12 13 14
3 2 2 6 3 4 4 1 2 3 4 4 5 6 7 5 5 7 10 9 8 9 9 8 6 5 7 5 4 3 4 10 16 20 20 18 15 13 13 11 10 11 12 11
4 4 5 1 3 2 2 3 2 2 3 6 8 5 5 4 5 9 11 11 11 9 7 8 7 6 6 7 6 5 4 0 15 22 22 21 19 16 13 13 12 12 11 11
3 4 6 6 1 4 2 3 3 3 5 11 8 5 3 7 11 12 16 15 13 10 10 9 10 9 10 9 8 8 6 3 10 19 22 23 21 19 16 13 14 14 14 12
3 3 6 3 8 5 5 6 1 4 5 1 3 2 9 11 10 14 15 15 12 11 10 10 10 9 10 9 11 8 6 4 11 16 18 19 20 17 17 16 17 17 17 14
2 2 5 4 5 4 3 2 5 5 5 9 9 11 10 11 11 13 14 12 11 11 11 11 9 9 10 11 7 6 6 7 9 10 14 18 18 18 16 17 17 17 20 17
6 5 3 3 5 7 4 2 1 6 9 14 13 8 11 10 10 11 13 11 10 10 11 10 7 7 10 7 6 8 10 12 12 11 13 15 18 17 16 16 18 19 16 20
2 3 3 6 7 4 4 2 1 5 14 14 13 10 9 9 9 9 11 12 12 11 11 10 8 7 8 7 8 10 13 16 15 15 16 14 13 13 13 12 15 19 19 17
3 5 3 5 4 5 5 7 9 7 6 14 13 11 12 9 8 10 11 10 11 11 11 9 9 8 6 7 10 15 17 17 18 18 19 19 18 15 13 9 10 14 18 19
5 4 3 4 4 4 5 2 5 10 7 7 11 10 12 8 11 12 11 11 10 11 11 10 9 8 8 8 10 15 19 20 19 20 19 21 22 21 17 14 12 12 14 16
3 3 4 3 3 1 0 3 4 7 7 10 10 15 14 12 12 15 15 14 11 12 13 12 10 10 9 9 10 13 19 19 18 19 18 18 19 20 21 16 14 13 14 15
3 2 3 2 2 2 3 4 10 10 10 11 16 14 14 13 15 15 14 18 14 14 14 11 10 11 10 12 16 18 19 18 18 17 17 16 15 16 17 18 17 14 13 13
5 3 3 4 3 6 7 7 7 6 6 6 11 14 14 14 11 12 13 13 13 14 12 12 14 13 14 16 18 21 21 19 17 17 15 14 12 12 12 13 15 16 15 12
4 2 4 2 2 4 5 5 8 7 7 8 10 12 14 15 14 16 16 16 19 15 14 17 17 17 17 17 18 18 16 15 14 13 12 11 10 10 10 10 11 12 11 10
3 2 3 5 5 5 7 6 6 7 10 11 12 16 16 16 17 14 14 18 16 17 19 18 19 19 18 16 15 14 13 12 10 9 8 7 7 7 7 8 9 10 11 10
8 7 5 6 6 6 6 7 11 13 11 17 18 18 17 16 14 13 15 18 18 18 18 17 16 14 12 11 12 12 11 10 9 9 9 10 11 10 10 9 9 10 11 11
8 9 11 10 12 8 7 11 15 18 18 20 20 17 18 19 20 17 19 16 15 15 15 15 13 13 12 11 11 11 11 11 13 16 18 19 17 19 17 17 16 14 12 14
9 11 11 14 11 13 9 13 20 19 21 22 20 18 15 16 19 18 18 15 12 12 14 15 15 15 13 13 14 16 17 16 15 18 19 20 20 21 21 21 19 19 20 18
9 11 9 7 6 7 9 13 18 17 22 24 22 18 18 20 21 20 18 12 7 10 12 14 15 12 8 8 10 17 21 19 19 19 23 26 24 22 20 18 17 19 21 20
10 7 4 14 12 8 10 14 18 19 21 21 19 21 21 19 20 19 17 17 11 9 8 10 13 10 8 3 2 3 4 8 11 13 15 17 19 21 20 18 20 21 24 24
10 5 11 13 13 14 15 13 14 17 16 18 18 20 18 19 23 21 13 18 20 16 14 11 7 5 5 3 1 3 5 7 10 11 8 8 10 12 14 20 24 27 29 29
7 14 17 20 23 20 15 14 19 16 16 15 16 18 22 20 15 20 23 18 14 13 12 10 6 3 2 4 5 7 8 10 11 9 5 2 2 4 8 12 15 19 22 29
16 19 20 17 16 15 20 16 22 21 21 21 18 17 19 20 23 22 21 18 15 13 10 7 2 2 2 5 6 6 8 10 9 5 5 6 9 11 11 12 13 13 12 14
15 16 17 16 18 21 18 18 18 17 20 20 21 24 24 24 22 19 18 14 11 8 5 3 5 4 3 8 11 10 7 6 6 7 9 12 14 15 16 16 15 14 14 14
20 20 21 22 21 20 20 20 20 18 21 23 22 25 25 19 15 11 7 4 2 3 3 2 2 7 11 14 11 9 10 8 7 9 11 14 14 15 15 16 16 16 17 18
Wind_Direction
248 225 192 222 189 170 146 157 148 233 202 243 226 212 167 151 135 132 150 179 138 150 144 155 173 171 181 216 219 224 215 213 212 201 181 159 137 122 112 99 94 91 89 85
341 304 182 194 228 195 175 139 290 232 258 223 264 112 137 145 157 154 167 161 122 107 123 122 139 142 147 183 210 223 227 219 204 199 176 160 147 137 126 112 105 101 91 86
256 338 99 5 200 209 194 165 153 190 241 154 118 134 160 143 164 163 154 133 128 118 128 134 140 149 140 163 184 202 216 225 197 187 173 162 155 146 131 120 115 103 99 92
184 21 188 239 305 246 230 162 224 215 215 179 138 101 82 119 159 135 113 119 111 117 126 129 137 135 131 151 148 154 185 207 198 187 175 164 162 153 140 130 122 113 109 101
151 183 277 272 46 71 90 293 14 18 136 127 126 91 73 51 67 105 111 99 101 112 114 90 71 63 76 72 61 47 20 80 204 189 179 171 165 158 151 140 127 114 112 116
137 162 197 238 315 27 178 293 353 128 164 157 141 149 152 115 115 107 104 110 112 111 101 82 62 64 60 51 49 36 10 15 186 196 186 176 167 162 156 146 130 123 120 121
160 212 283 307 308 300 112 233 162 126 127 291 92 151 128 111 99 102 105 106 108 97 81 68 66 67 69 61 48 36 39 86 158 182 184 172 161 159 153 140 130 127 122 120
87 114 264 19 301 193 238 82 140 105 110 102 121 122 121 119 122 116 109 105 104 93 76 64 64 72 70 60 54 66 85 105 122 141 153 156 155 145 141 137 132 127 125 111
181 216 286 290 272 307 296 303 176 118 134 142 144 141 130 128 118 108 112 111 105 99 92 81 80 92 91 83 93 98 102 99 107 122 133 139 141 135 132 132 131 127 122 116
42 237 296 307 309 321 329 14 85 142 145 147 138 127 109 112 116 118 130 128 130 118 101 95 93 95 106 116 115 115 109 107 109 112 113 117 121 128 129 131 135 140 132 124
272 273 289 282 298 336 16 74 87 79 126 140 134 131 131 130 128 126 129 133 134 126 124 119 122 112 112 116 125 116 107 105 105 111 114 115 110 109 117 126 156 145 138 137
229 223 154 241 289 353 15 55 101 117 111 102 137 133 128 131 137 142 139 137 130 135 132 130 121 121 122 127 127 121 113 109 112 115 116 115 113 104 98 101 109 124 132 136
282 248 214 229 146 338 49 133 118 111 129 129 129 140 142 140 149 146 142 146 155 146 143 139 134 124 114 117 122 122 117 119 125 126 125 124 122 121 115 109 114 118 117 122
113 325 344 344 162 96 77 89 105 101 117 128 133 135 144 147 149 149 157 154 151 144 132 125 125 122 125 125 129 123 120 122 121 119 116 117 119 123 126 127 122 113 116 122
291 168 179 278 323 91 128 126 121 119 119 112 143 140 147 151 152 145 152 148 144 148 145 151 146 139 133 134 133 129 126 124 121 116 114 114 118 120 120 125 131 135 137 137
217 325 342 296 136 142 121 133 138 152 146 149 146 156 165 160 158 156 163 164 161 170 166 155 146 140 138 136 136 134 131 130 129 126 126 127 128 127 132 140 148 150 153 154
103 223 244 278 235 191 193 174 170 162 149 150 163 163 160 153 153 153 157 177 176 162 160 158 151 147 143 143 146 152 157 158 159 159 162 164 158 156 165 173 175 177 180 179
266 260 235 240 219 189 185 183 166 166 170 170 163 157 150 152 161 163 168 172 163 160 167 165 168 170 178 179 178 183 190 198 213 225 227 226 222 219 214 211 204 203 199 201
286 266 250 235 236 211 183 179 180 176 174 168 162 164 170 170 170 171 167 168 170 174 184 184 186 188 194 198 203 209 217 233 242 256 261 256 251 246 240 236 231 231 223 220
298 305 253 232 231 221 209 193 170 168 171 169 166 158 158 171 171 168 168 172 190 189 179 184 192 199 209 221 231 237 242 250 261 267 258 250 248 253 246 242 244 242 237 236
301 307 260 195 175 205 216 187 160 153 165 173 168 163 165 171 171 165 157 137 163 186 191 196 209 212 220 246 243 239 245 254 262 269 264 253 248 239 237 235 234 236 235 238
304 309 181 143 138 127 146 169 168 160 161 168 170 166 160 158 166 164 170 150 121 133 145 165 179 178 170 175 175 187 266 279 290 285 274 257 243 235 235 242 247 246 243 242
303 230 136 123 118 109 114 129 145 153 147 155 156 153 152 153 159 139 124 141 134 121 113 112 121 150 171 154 13 325 314 308 306 304 291 258 239 240 255 261 260 257 254 250
77 99 105 113 108 98 91 95 112 122 129 134 146 160 155 135 130 151 141 137 126 127 121 132 126 90 26 37 13 2 342 305 302 279 254 233 268 302 303 303 301 290 274 265
84 90 94 94 93 99 92 105 99 99 105 108 122 134 141 145 138 134 132 134 141 131 134 154 276 224 294 23 12 344 347 354 345 317 280 287 298 293 293 301 308 318 321 297
83 88 90 101 97 98 105 98 101 107 105 98 100 114 119 122 120 120 121 121 116 118 118 34 346 336 342 328 313 303 314 324 346 347 332 319 313 306 298 287 288 296 308 314
80 84 83 80 82 92 99 99 99 95 99 102 99 108 111 108 111 114 101 86 68 47 39 18 274 262 282 306 312 301 281 283 302 307 309 305 307 309 309 308 305 303 294 288